CZ-12 R/B

Last updated on Sat Feb 14 2026 00:02:06 GMT+0000 (Coordinated Universal Time)

1 67531U 26013K 26044.30903653 -.00000106 00000+0 24917-4 0 9993 2 67531 49.9940 81.6091 0069052 213.8608 145.7882 14.14458025 3534
UTC large
Height (km)
Speed (km/s)
/
Latitude / Longitude
Inclination (degrees)
Orbital Period (minutes)
Azimuth
Elevation
Range (km)
Doppler Factor

Next 0 passes for location: London (51.5072 / 0.1276)

Sorry there are no passes over London.